History for Miami, FL

Friday, December 7, 2012 — View Current Conditions

Jump to Data:

Date:
Airport Code:
Recently Viewed Airport Codes: KMIA
Daily Summary
  Actual Average Record
Temperature
Mean Temperature 75°F 72°F  
Max Temperature 80°F 79°F 86°F (1978)
Min Temperature 69°F 65°F 35°F (1937)
Degree Days
Heating Degree Days 0 1  
Month to date heating degree days 0 3  
Since 1 July heating degree days 1 6  
Cooling Degree Days 10 7  
Month to date cooling degree days 66 54  
Year to date cooling degree days 4506 4426  
Growing Degree Days 24 (Base 50)    
Moisture
Dew Point 67°F    
Average Humidity 82    
Maximum Humidity 97    
Minimum Humidity 67    
Precipitation
Precipitation 0.09 in 0.06 in 2.70 in (1979)
Month to date precipitation 0.22 0.49  
Year to date precipitation 86.65 60.35  
Snow
Snow 0.00 in in in ()
Month to date snowfall 0.0  
Since 1 July snowfall 0.0  
Snow Depth 0.00 in    
Sea Level Pressure
Sea Level Pressure 29.95 in    
Wind
Wind Speed 5 mph (ESE)    
Max Wind Speed 14 mph    
Max Gust Speed 20 mph    
Visibility 10 miles    
Events Rain    
T = Trace of Precipitation, MM = Missing Value Source: NWS Daily Summary

Show full METARS

(help) - Comma Delimited File

Hourly Observations

Time(EST) Temperature Dew Point Humidity Sea Level Pressure Visibility Wind Direction Wind Speed Gust Speed Precipitation Events Conditions
12:44 AM 69.8°F 66.2°F 88% 29.95 in 6.0 miles NNE 3.5 mph - 0.09 in Rain Rain
12:53 AM 71.1°F 66.9°F 87% 29.95 in 10.0 miles Calm Calm - 0.09 in Rain Light Rain
1:41 AM 71.6°F 68.0°F 88% 29.94 in 10.0 miles Calm Calm - 0.00 in   Mostly Cloudy
1:53 AM 70.0°F 68.0°F 93% 29.94 in 10.0 miles West 3.5 mph - 0.00 in   Mostly Cloudy
2:53 AM 70.0°F 68.0°F 93% 29.92 in 10.0 miles Calm Calm - N/A   Mostly Cloudy
3:37 AM 69.8°F 68.0°F 94% 29.92 in 10.0 miles Calm Calm - N/A   Mostly Cloudy
3:53 AM 70.0°F 68.0°F 93% 29.92 in 10.0 miles Calm Calm - N/A   Overcast
4:53 AM 69.1°F 68.0°F 96% 29.92 in 10.0 miles Calm Calm - N/A   Mostly Cloudy
5:53 AM 70.0°F 68.0°F 93% 29.94 in 10.0 miles Calm Calm - N/A   Overcast
6:53 AM 70.0°F 66.9°F 90% 29.96 in 10.0 miles Calm Calm - 0.00 in   Mostly Cloudy
7:53 AM 72.0°F 68.0°F 87% 29.96 in 10.0 miles Calm Calm - N/A   Scattered Clouds
8:53 AM 75.9°F 68.0°F 76% 29.98 in 10.0 miles SE 9.2 mph - N/A   Scattered Clouds
9:53 AM 77.0°F 68.0°F 74% 29.99 in 10.0 miles SE 10.4 mph 17.3 mph N/A   Scattered Clouds
10:33 AM 78.8°F 68.0°F 69% 29.99 in 10.0 miles ESE 12.7 mph - N/A   Mostly Cloudy
10:53 AM 78.1°F 66.9°F 68% 29.99 in 10.0 miles ESE 6.9 mph - N/A   Mostly Cloudy
11:53 AM 79.0°F 66.9°F 66% 29.98 in 10.0 miles ESE 8.1 mph - N/A   Mostly Cloudy
12:53 PM 79.0°F 66.9°F 66% 29.95 in 10.0 miles SSE 9.2 mph 17.3 mph N/A   Mostly Cloudy
1:53 PM 79.0°F 66.0°F 64% 29.92 in 10.0 miles SSE 9.2 mph - N/A   Mostly Cloudy
2:35 PM 78.8°F 66.2°F 65% 29.92 in 10.0 miles ESE 9.2 mph - N/A   Scattered Clouds
2:53 PM 79.0°F 66.0°F 64% 29.92 in 10.0 miles SSE 8.1 mph - N/A   Scattered Clouds
3:53 PM 79.0°F 66.0°F 64% 29.92 in 10.0 miles SE 10.4 mph - N/A   Mostly Cloudy
4:53 PM 75.9°F 68.0°F 76% 29.93 in 10.0 miles SE 4.6 mph - N/A   Scattered Clouds
5:53 PM 73.9°F 66.9°F 79% 29.94 in 10.0 miles ESE 6.9 mph - N/A   Scattered Clouds
6:53 PM 75.0°F 68.0°F 79% 29.96 in 10.0 miles ESE 5.8 mph - N/A   Scattered Clouds
7:53 PM 73.4°F 68.0°F 83% 29.97 in 10.0 miles ESE 6.9 mph - N/A   Scattered Clouds
8:53 PM 73.9°F 68.0°F 82% 29.98 in 10.0 miles ESE 9.2 mph - N/A   Scattered Clouds
9:53 PM 73.0°F 66.9°F 81% 29.99 in 10.0 miles ESE 4.6 mph - N/A   Mostly Cloudy
10:53 PM 71.6°F 64.4°F 78% 29.99 in 10.0 miles ESE 6.9 mph - N/A   Mostly Cloudy
11:53 PM 73.0°F 66.9°F 81% 29.99 in 10.0 miles East 5.8 mph - N/A   Mostly Cloudy